GEFSNE_prec_meanprec_006.txt.gz
QPF
0.03 0.03 0.03 0.02 0.02 0.02 0.03 0.04 0.05 0.03 0.03 0.03 0.04 0.06 0.10 0.11 0.09 0.07 0.06 0.02 0.01 0.00 0.01 0.04 0.08 0.11 0.15 0.17 0.17 0.17 0.14 0.11 0.08 0.06 0.05 0.04 0.04 0.04
0.03 0.03 0.03 0.04 0.04 0.06 0.07 0.07 0.08 0.08 0.06 0.03 0.03 0.06 0.10 0.12 0.12 0.08 0.06 0.05 0.02 0.01 0.03 0.16 0.26 0.27 0.28 0.25 0.22 0.22 0.22 0.19 0.13 0.09 0.07 0.05 0.03 0.02
0.03 0.03 0.03 0.04 0.05 0.06 0.08 0.10 0.12 0.12 0.10 0.04 0.04 0.09 0.13 0.14 0.15 0.13 0.09 0.05 0.03 0.03 0.04 0.17 0.44 0.65 0.57 0.45 0.35 0.29 0.26 0.23 0.17 0.11 0.08 0.05 0.02 0.02
0.03 0.03 0.02 0.03 0.03 0.04 0.06 0.08 0.09 0.10 0.10 0.08 0.07 0.12 0.15 0.19 0.22 0.17 0.09 0.04 0.04 0.06 0.11 0.17 0.36 0.77 0.87 0.65 0.54 0.42 0.31 0.24 0.16 0.11 0.07 0.04 0.03 0.02
0.03 0.03 0.03 0.04 0.05 0.05 0.07 0.07 0.08 0.09 0.13 0.17 0.16 0.15 0.18 0.25 0.29 0.20 0.09 0.05 0.05 0.07 0.14 0.22 0.34 0.82 1.12 0.90 0.68 0.59 0.40 0.27 0.16 0.11 0.07 0.04 0.02 0.01
0.02 0.03 0.04 0.06 0.07 0.07 0.08 0.08 0.10 0.10 0.10 0.13 0.16 0.19 0.22 0.26 0.28 0.24 0.11 0.07 0.05 0.06 0.11 0.22 0.33 0.65 1.00 1.01 0.79 0.70 0.55 0.38 0.25 0.14 0.07 0.04 0.02 0.01
0.02 0.03 0.04 0.05 0.07 0.08 0.10 0.11 0.13 0.12 0.09 0.09 0.12 0.17 0.22 0.23 0.20 0.17 0.10 0.07 0.05 0.06 0.10 0.16 0.28 0.55 0.73 0.79 0.68 0.55 0.47 0.37 0.27 0.17 0.09 0.04 0.02 0.01
0.04 0.03 0.02 0.03 0.05 0.08 0.11 0.11 0.09 0.08 0.08 0.10 0.12 0.10 0.12 0.13 0.10 0.08 0.05 0.07 0.05 0.05 0.07 0.13 0.22 0.41 0.53 0.51 0.39 0.23 0.16 0.14 0.11 0.07 0.04 0.02 0.01 0.00
0.04 0.03 0.02 0.02 0.03 0.04 0.06 0.06 0.05 0.06 0.09 0.12 0.11 0.07 0.09 0.11 0.08 0.06 0.03 0.06 0.08 0.05 0.05 0.12 0.22 0.30 0.33 0.27 0.16 0.06 0.03 0.02 0.02 0.01 0.01 0.00 0.00 0.00
0.03 0.02 0.01 0.03 0.03 0.04 0.04 0.06 0.10 0.10 0.09 0.11 0.11 0.11 0.15 0.13 0.06 0.05 0.04 0.10 0.13 0.06 0.03 0.11 0.19 0.19 0.16 0.11 0.05 0.01 0.01 0.01 0.00 0.00 0.00 0.00 0.00 0.00
0.02 0.02 0.03 0.06 0.06 0.09 0.11 0.13 0.19 0.22 0.19 0.17 0.18 0.23 0.25 0.16 0.07 0.06 0.08 0.12 0.09 0.04 0.04 0.08 0.12 0.10 0.07 0.05 0.03 0.01 0.01 0.00 0.00 0.00 0.00 0.00 0.00 0.00
0.01 0.03 0.06 0.09 0.09 0.15 0.14 0.13 0.16 0.19 0.17 0.17 0.20 0.25 0.24 0.20 0.14 0.12 0.10 0.06 0.03 0.03 0.05 0.06 0.06 0.04 0.04 0.03 0.02 0.02 0.02 0.01 0.00 0.00 0.00 0.00 0.00 0.00
0.02 0.06 0.08 0.10 0.10 0.13 0.14 0.12 0.16 0.18 0.15 0.13 0.15 0.16 0.18 0.18 0.16 0.17 0.12 0.05 0.03 0.02 0.03 0.03 0.03 0.02 0.02 0.02 0.01 0.01 0.01 0.01 0.00 0.00 0.00 0.00 0.00 0.00
0.02 0.08 0.09 0.08 0.09 0.12 0.11 0.14 0.22 0.24 0.17 0.12 0.10 0.10 0.11 0.14 0.13 0.10 0.07 0.05 0.03 0.02 0.01 0.01 0.01 0.01 0.01 0.01 0.00 0.00 0.00 0.00 0.00 0.00 0.00 0.00 0.00 0.00
0.02 0.09 0.09 0.05 0.08 0.14 0.18 0.21 0.28 0.25 0.18 0.11 0.09 0.08 0.07 0.08 0.09 0.09 0.07 0.05 0.03 0.02 0.01 0.00 0.00 0.00 0.00 0.00 0.00 0.00 0.00 0.00 0.00 0.00 0.00 0.00 0.00 0.00
0.01 0.06 0.07 0.05 0.06 0.13 0.20 0.25 0.25 0.24 0.19 0.13 0.10 0.09 0.08 0.07 0.07 0.07 0.06 0.03 0.02 0.02 0.02 0.01 0.00 0.00 0.00 0.00 0.00 0.00 0.00 0.00 0.00 0.00 0.00 0.00 0.00 0.00
0.00 0.02 0.02 0.03 0.04 0.07 0.12 0.16 0.15 0.15 0.16 0.13 0.11 0.10 0.09 0.08 0.08 0.07 0.05 0.02 0.02 0.02 0.02 0.01 0.00 0.00 0.00 0.00 0.00 0.00 0.00 0.00 0.00 0.00 0.00 0.00 0.00 0.00
0.00 0.01 0.03 0.05 0.06 0.07 0.08 0.09 0.08 0.08 0.09 0.09 0.10 0.09 0.09 0.08 0.08 0.05 0.03 0.02 0.01 0.01 0.01 0.00 0.00 0.00 0.00 0.00 0.00 0.00 0.00 0.00 0.00 0.00 0.00 0.00 0.00 0.00
0.00 0.01 0.03 0.06 0.09 0.09 0.10 0.09 0.08 0.07 0.06 0.06 0.07 0.08 0.07 0.07 0.05 0.03 0.01 0.01 0.01 0.00 0.00 0.00 0.00 0.00 0.00 0.00 0.00 0.00 0.00 0.00 0.00 0.00 0.00 0.00 0.00 0.00
0.01 0.01 0.01 0.03 0.07 0.11 0.11 0.10 0.09 0.08 0.05 0.04 0.06 0.07 0.07 0.05 0.03 0.01 0.01 0.00 0.00 0.00 0.00 0.00 0.00 0.00 0.00 0.00 0.00 0.00 0.00 0.00 0.00 0.00 0.00 0.00 0.00 0.00
0.01 0.01 0.01 0.02 0.04 0.08 0.09 0.09 0.08 0.06 0.05 0.03 0.04 0.05 0.06 0.05 0.02 0.01 0.00 0.00 0.00 0.00 0.00 0.00 0.00 0.00 0.00 0.00 0.00 0.00 0.00 0.00 0.00 0.00 0.00 0.00 0.00 0.00
0.02 0.01 0.01 0.01 0.02 0.05 0.05 0.05 0.05 0.05 0.04 0.04 0.04 0.04 0.05 0.04 0.02 0.01 0.00 0.00 0.00 0.00 0.00 0.00 0.00 0.00 0.00 0.00 0.00 0.00 0.00 0.00 0.00 0.00 0.00 0.00 0.00 0.00
0.03 0.02 0.01 0.02 0.02 0.03 0.04 0.04 0.05 0.05 0.04 0.03 0.03 0.03 0.03 0.03 0.02 0.01 0.01 0.00 0.00 0.00 0.00 0.00 0.00 0.00 0.00 0.00 0.00 0.00 0.00 0.00 0.00 0.00 0.00 0.00 0.00 0.00

GEFSNE_prec_meanprec_012.txt.gz
QPF
0.04 0.04 0.04 0.04 0.04 0.05 0.05 0.06 0.07 0.06 0.03 0.02 0.01 0.02 0.06 0.10 0.15 0.19 0.17 0.07 0.03 0.01 0.00 0.00 0.00 0.00 0.00 0.00 0.00 0.00 0.01 0.02 0.04 0.08 0.11 0.14 0.13 0.12
0.04 0.03 0.03 0.03 0.03 0.04 0.04 0.05 0.06 0.08 0.07 0.04 0.03 0.04 0.07 0.09 0.15 0.19 0.15 0.11 0.07 0.03 0.01 0.00 0.00 0.00 0.00 0.00 0.00 0.01 0.02 0.04 0.08 0.13 0.17 0.20 0.19 0.18
0.02 0.02 0.02 0.03 0.03 0.03 0.03 0.04 0.05 0.08 0.09 0.05 0.04 0.05 0.07 0.10 0.13 0.14 0.13 0.13 0.11 0.08 0.03 0.01 0.01 0.00 0.00 0.01 0.01 0.03 0.06 0.10 0.15 0.21 0.27 0.31 0.28 0.21
0.02 0.03 0.03 0.04 0.04 0.04 0.05 0.05 0.06 0.07 0.09 0.07 0.04 0.04 0.06 0.10 0.14 0.17 0.20 0.18 0.14 0.13 0.08 0.03 0.02 0.03 0.04 0.04 0.05 0.07 0.12 0.18 0.25 0.31 0.36 0.35 0.29 0.21
0.03 0.04 0.04 0.05 0.04 0.05 0.06 0.07 0.07 0.08 0.09 0.08 0.05 0.05 0.08 0.12 0.15 0.20 0.21 0.19 0.13 0.11 0.08 0.05 0.07 0.14 0.20 0.22 0.18 0.18 0.22 0.27 0.32 0.37 0.41 0.40 0.31 0.20
0.04 0.05 0.05 0.05 0.06 0.05 0.05 0.06 0.08 0.10 0.09 0.08 0.06 0.07 0.09 0.12 0.12 0.16 0.18 0.16 0.13 0.09 0.07 0.06 0.11 0.28 0.47 0.64 0.54 0.38 0.33 0.33 0.34 0.35 0.37 0.34 0.25 0.15
0.03 0.05 0.05 0.04 0.04 0.04 0.03 0.05 0.09 0.11 0.10 0.09 0.07 0.07 0.09 0.11 0.10 0.11 0.14 0.13 0.09 0.06 0.05 0.07 0.17 0.40 0.66 0.94 0.99 0.72 0.50 0.41 0.36 0.33 0.31 0.26 0.20 0.13
0.05 0.04 0.02 0.01 0.01 0.02 0.03 0.06 0.09 0.09 0.09 0.08 0.06 0.06 0.07 0.08 0.08 0.10 0.11 0.10 0.07 0.04 0.03 0.08 0.22 0.54 0.86 1.09 1.19 0.98 0.74 0.62 0.54 0.48 0.43 0.35 0.27 0.18
0.05 0.03 0.01 0.01 0.01 0.02 0.03 0.06 0.09 0.10 0.08 0.05 0.04 0.04 0.06 0.07 0.08 0.11 0.10 0.08 0.07 0.03 0.03 0.08 0.21 0.48 0.78 1.02 1.04 0.92 0.81 0.71 0.63 0.55 0.47 0.37 0.25 0.16
0.02 0.02 0.02 0.01 0.02 0.03 0.04 0.07 0.10 0.09 0.06 0.04 0.04 0.05 0.07 0.07 0.06 0.06 0.06 0.07 0.05 0.02 0.02 0.07 0.18 0.37 0.57 0.70 0.68 0.63 0.60 0.55 0.49 0.41 0.32 0.22 0.13 0.07
0.01 0.01 0.01 0.01 0.02 0.04 0.06 0.09 0.12 0.12 0.08 0.06 0.08 0.12 0.13 0.10 0.07 0.06 0.06 0.05 0.03 0.02 0.02 0.06 0.13 0.23 0.34 0.39 0.35 0.32 0.30 0.28 0.24 0.19 0.14 0.09 0.04 0.02
0.00 0.01 0.01 0.02 0.02 0.04 0.08 0.11 0.16 0.17 0.11 0.07 0.09 0.14 0.14 0.13 0.13 0.10 0.07 0.05 0.02 0.02 0.03 0.05 0.09 0.11 0.17 0.19 0.15 0.12 0.11 0.10 0.07 0.06 0.04 0.02 0.01 0.00
0.00 0.01 0.02 0.03 0.03 0.06 0.11 0.14 0.20 0.19 0.13 0.09 0.10 0.13 0.15 0.15 0.13 0.13 0.09 0.05 0.02 0.03 0.04 0.06 0.08 0.08 0.08 0.10 0.08 0.05 0.04 0.03 0.02 0.02 0.01 0.00 0.00 0.00
0.01 0.02 0.03 0.04 0.04 0.09 0.13 0.17 0.23 0.23 0.15 0.10 0.08 0.08 0.09 0.10 0.11 0.09 0.06 0.03 0.02 0.04 0.05 0.05 0.07 0.08 0.07 0.04 0.04 0.03 0.02 0.01 0.00 0.00 0.00 0.00 0.00 0.00
0.02 0.05 0.05 0.04 0.07 0.12 0.17 0.20 0.23 0.22 0.17 0.12 0.08 0.06 0.05 0.06 0.06 0.06 0.05 0.03 0.03 0.04 0.04 0.03 0.03 0.04 0.04 0.02 0.02 0.01 0.01 0.01 0.00 0.00 0.00 0.00 0.00 0.00
0.02 0.04 0.04 0.05 0.10 0.17 0.21 0.22 0.22 0.22 0.20 0.15 0.11 0.07 0.05 0.05 0.05 0.04 0.03 0.03 0.04 0.06 0.04 0.02 0.01 0.01 0.01 0.01 0.01 0.01 0.01 0.01 0.01 0.01 0.01 0.01 0.01 0.00
0.02 0.02 0.02 0.04 0.08 0.16 0.19 0.20 0.20 0.21 0.23 0.19 0.14 0.09 0.07 0.07 0.06 0.05 0.04 0.04 0.04 0.04 0.03 0.02 0.01 0.00 0.00 0.00 0.00 0.00 0.01 0.01 0.01 0.01 0.01 0.01 0.00 0.00
0.01 0.02 0.03 0.05 0.09 0.14 0.17 0.18 0.19 0.19 0.20 0.18 0.15 0.11 0.08 0.07 0.07 0.06 0.04 0.03 0.03 0.02 0.02 0.01 0.01 0.01 0.01 0.01 0.00 0.00 0.01 0.01 0.01 0.01 0.00 0.00 0.00 0.00
0.01 0.02 0.04 0.07 0.10 0.12 0.13 0.13 0.13 0.14 0.14 0.14 0.12 0.10 0.07 0.06 0.05 0.04 0.02 0.02 0.01 0.01 0.01 0.00 0.00 0.00 0.00 0.01 0.01 0.00 0.01 0.01 0.01 0.01 0.00 0.00 0.00 0.00
0.01 0.02 0.04 0.07 0.09 0.10 0.09 0.09 0.08 0.09 0.09 0.09 0.09 0.07 0.05 0.03 0.03 0.02 0.01 0.01 0.01 0.00 0.00 0.00 0.00 0.00 0.00 0.00 0.01 0.01 0.00 0.01 0.01 0.00 0.00 0.00 0.00 0.00
0.01 0.02 0.04 0.06 0.07 0.07 0.07 0.06 0.05 0.06 0.06 0.06 0.06 0.05 0.04 0.03 0.02 0.01 0.01 0.00 0.01 0.01 0.01 0.01 0.00 0.00 0.00 0.00 0.01 0.00 0.00 0.00 0.00 0.00 0.00 0.00 0.00 0.00
0.01 0.02 0.04 0.06 0.07 0.06 0.05 0.04 0.04 0.03 0.03 0.04 0.04 0.05 0.05 0.03 0.02 0.01 0.01 0.01 0.01 0.00 0.00 0.00 0.00 0.00 0.00 0.00 0.00 0.00 0.00 0.00 0.00 0.00 0.00 0.00 0.00 0.00
0.01 0.02 0.03 0.05 0.06 0.05 0.05 0.04 0.04 0.03 0.03 0.04 0.04 0.04 0.04 0.03 0.02 0.02 0.01 0.00 0.00 0.00 0.00 0.00 0.00 0.00 0.00 0.00 0.00 0.00 0.00 0.00 0.00 0.00 0.00 0.00 0.00 0.00

GEFSNE_prec_meanprec_018.txt.gz
QPF
0.01 0.01 0.00 0.00 0.01 0.01 0.02 0.04 0.06 0.06 0.03 0.01 0.00 0.00 0.00 0.00 0.00 0.00 0.01 0.02 0.03 0.02 0.02 0.01 0.01 0.00 0.00 0.00 0.00 0.00 0.00 0.00 0.00 0.00 0.00 0.00 0.01 0.03
0.01 0.01 0.01 0.01 0.01 0.01 0.01 0.02 0.04 0.07 0.06 0.02 0.00 0.00 0.00 0.00 0.00 0.01 0.02 0.04 0.05 0.05 0.03 0.02 0.01 0.00 0.00 0.00 0.00 0.00 0.00 0.00 0.00 0.00 0.00 0.00 0.02 0.06
0.00 0.00 0.00 0.01 0.01 0.01 0.02 0.03 0.03 0.05 0.05 0.03 0.00 0.00 0.00 0.00 0.00 0.01 0.04 0.05 0.06 0.07 0.04 0.02 0.02 0.01 0.00 0.00 0.00 0.00 0.00 0.00 0.00 0.00 0.00 0.01 0.03 0.08
0.00 0.00 0.00 0.01 0.01 0.02 0.02 0.03 0.03 0.03 0.04 0.03 0.01 0.00 0.00 0.00 0.01 0.03 0.06 0.08 0.07 0.08 0.05 0.04 0.02 0.01 0.01 0.00 0.00 0.00 0.00 0.00 0.00 0.00 0.01 0.03 0.07 0.13
0.00 0.00 0.00 0.01 0.01 0.02 0.02 0.02 0.02 0.02 0.03 0.04 0.02 0.01 0.00 0.01 0.03 0.06 0.06 0.07 0.06 0.06 0.05 0.04 0.03 0.01 0.01 0.01 0.01 0.00 0.00 0.01 0.01 0.01 0.03 0.06 0.11 0.15
0.00 0.00 0.01 0.01 0.02 0.02 0.01 0.01 0.01 0.02 0.02 0.03 0.03 0.01 0.01 0.03 0.06 0.09 0.08 0.05 0.04 0.03 0.04 0.03 0.03 0.03 0.06 0.07 0.05 0.03 0.02 0.02 0.02 0.04 0.07 0.11 0.15 0.18
0.00 0.01 0.01 0.02 0.03 0.02 0.01 0.01 0.02 0.04 0.05 0.04 0.04 0.03 0.03 0.05 0.06 0.06 0.05 0.04 0.02 0.02 0.03 0.03 0.05 0.16 0.23 0.22 0.19 0.11 0.06 0.06 0.07 0.09 0.13 0.16 0.19 0.20
0.00 0.00 0.00 0.01 0.00 0.00 0.01 0.01 0.04 0.07 0.08 0.07 0.05 0.04 0.04 0.05 0.05 0.05 0.04 0.03 0.04 0.03 0.02 0.05 0.16 0.34 0.44 0.50 0.50 0.33 0.15 0.11 0.13 0.15 0.18 0.21 0.22 0.22
0.00 0.00 0.01 0.00 0.00 0.00 0.00 0.01 0.04 0.08 0.10 0.08 0.05 0.03 0.04 0.04 0.05 0.05 0.04 0.03 0.05 0.03 0.02 0.09 0.26 0.42 0.61 0.87 0.89 0.58 0.32 0.22 0.22 0.24 0.27 0.29 0.30 0.27
0.00 0.00 0.00 0.00 0.00 0.00 0.01 0.02 0.05 0.07 0.06 0.04 0.03 0.03 0.04 0.04 0.04 0.03 0.02 0.03 0.03 0.02 0.03 0.12 0.30 0.52 0.70 0.94 1.01 0.72 0.51 0.42 0.40 0.39 0.40 0.40 0.39 0.34
0.00 0.00 0.00 0.00 0.00 0.01 0.02 0.05 0.09 0.11 0.07 0.04 0.05 0.07 0.08 0.07 0.04 0.03 0.03 0.03 0.02 0.02 0.03 0.12 0.28 0.45 0.60 0.76 0.85 0.75 0.64 0.59 0.56 0.52 0.47 0.42 0.37 0.31
0.00 0.00 0.00 0.01 0.01 0.02 0.04 0.09 0.15 0.17 0.10 0.05 0.07 0.10 0.09 0.08 0.08 0.07 0.05 0.04 0.03 0.02 0.03 0.09 0.19 0.28 0.45 0.61 0.60 0.56 0.55 0.58 0.57 0.53 0.46 0.37 0.26 0.16
0.00 0.01 0.01 0.03 0.02 0.04 0.09 0.14 0.20 0.22 0.14 0.07 0.05 0.07 0.07 0.06 0.07 0.07 0.05 0.04 0.02 0.01 0.02 0.06 0.13 0.17 0.24 0.41 0.48 0.45 0.40 0.40 0.41 0.42 0.38 0.30 0.21 0.12
0.02 0.03 0.04 0.04 0.04 0.08 0.14 0.19 0.24 0.24 0.15 0.07 0.03 0.02 0.03 0.04 0.05 0.05 0.03 0.01 0.00 0.00 0.02 0.04 0.09 0.13 0.14 0.19 0.29 0.32 0.28 0.24 0.22 0.21 0.20 0.18 0.15 0.12
0.04 0.05 0.05 0.04 0.07 0.13 0.19 0.23 0.25 0.23 0.15 0.08 0.04 0.03 0.02 0.02 0.02 0.02 0.01 0.00 0.00 0.01 0.01 0.03 0.06 0.11 0.11 0.10 0.13 0.13 0.13 0.12 0.09 0.08 0.07 0.06 0.05 0.05
0.02 0.03 0.04 0.06 0.11 0.18 0.21 0.23 0.24 0.23 0.17 0.10 0.06 0.04 0.03 0.03 0.02 0.01 0.01 0.01 0.01 0.02 0.02 0.03 0.04 0.06 0.08 0.06 0.06 0.05 0.05 0.05 0.05 0.04 0.04 0.02 0.01 0.01
0.02 0.03 0.04 0.08 0.14 0.19 0.21 0.21 0.21 0.21 0.17 0.10 0.06 0.05 0.05 0.03 0.03 0.02 0.02 0.02 0.02 0.02 0.02 0.02 0.03 0.03 0.03 0.04 0.04 0.04 0.04 0.03 0.03 0.03 0.02 0.01 0.00 0.00
0.03 0.04 0.07 0.12 0.17 0.20 0.22 0.21 0.20 0.18 0.15 0.10 0.07 0.06 0.05 0.04 0.04 0.03 0.02 0.02 0.02 0.02 0.01 0.01 0.02 0.02 0.03 0.03 0.02 0.02 0.02 0.01 0.01 0.01 0.00 0.00 0.00 0.00
0.03 0.06 0.10 0.14 0.17 0.18 0.19 0.19 0.18 0.16 0.13 0.10 0.07 0.05 0.05 0.04 0.03 0.03 0.02 0.01 0.01 0.01 0.01 0.00 0.00 0.00 0.01 0.02 0.02 0.00 0.00 0.00 0.00 0.00 0.00 0.00 0.00 0.00
0.04 0.08 0.11 0.13 0.14 0.15 0.15 0.16 0.16 0.14 0.11 0.08 0.07 0.06 0.04 0.03 0.03 0.02 0.01 0.01 0.00 0.00 0.00 0.00 0.00 0.00 0.00 0.00 0.01 0.00 0.00 0.00 0.00 0.00 0.00 0.00 0.00 0.00
0.05 0.08 0.11 0.12 0.11 0.11 0.11 0.11 0.11 0.10 0.08 0.07 0.06 0.05 0.04 0.03 0.02 0.01 0.01 0.00 0.00 0.00 0.01 0.01 0.00 0.00 0.00 0.00 0.00 0.00 0.00 0.00 0.00 0.00 0.00 0.00 0.00 0.00
0.05 0.08 0.10 0.10 0.08 0.07 0.06 0.06 0.05 0.05 0.05 0.04 0.04 0.04 0.03 0.02 0.01 0.01 0.01 0.01 0.01 0.00 0.00 0.00 0.00 0.00 0.00 0.00 0.00 0.00 0.00 0.00 0.00 0.00 0.00 0.00 0.00 0.00
0.03 0.05 0.07 0.08 0.07 0.05 0.04 0.03 0.03 0.03 0.03 0.03 0.03 0.02 0.02 0.02 0.01 0.01 0.01 0.00 0.00 0.00 0.00 0.00 0.00 0.00 0.00 0.00 0.00 0.00 0.00 0.00 0.00 0.00 0.00 0.00 0.00 0.00

GEFSNE_prec_meanprec_024.txt.gz
QPF
0.00 0.00 0.00 0.00 0.00 0.00 0.00 0.01 0.02 0.02 0.01 0.00 0.00 0.00 0.00 0.00 0.00 0.00 0.00 0.00 0.00 0.01 0.01 0.01 0.01 0.01 0.01 0.01 0.01 0.01 0.01 0.02 0.02 0.03 0.03 0.02 0.02 0.01
0.00 0.00 0.00 0.00 0.00 0.00 0.00 0.00 0.01 0.03 0.03 0.01 0.01 0.00 0.00 0.00 0.00 0.00 0.00 0.00 0.01 0.01 0.02 0.02 0.02 0.02 0.01 0.01 0.01 0.01 0.01 0.01 0.01 0.01 0.01 0.01 0.01 0.01
0.00 0.00 0.00 0.00 0.00 0.00 0.00 0.00 0.01 0.02 0.03 0.02 0.01 0.00 0.00 0.00 0.00 0.00 0.00 0.00 0.01 0.02 0.03 0.03 0.02 0.02 0.01 0.01 0.01 0.01 0.01 0.01 0.01 0.01 0.01 0.01 0.00 0.00
0.00 0.00 0.00 0.00 0.00 0.00 0.00 0.01 0.01 0.02 0.03 0.03 0.01 0.00 0.00 0.00 0.00 0.00 0.00 0.01 0.02 0.04 0.04 0.03 0.02 0.02 0.01 0.01 0.01 0.01 0.01 0.01 0.01 0.01 0.00 0.00 0.00 0.00
0.00 0.00 0.00 0.00 0.00 0.00 0.01 0.01 0.02 0.02 0.02 0.02 0.01 0.00 0.00 0.00 0.00 0.01 0.01 0.02 0.03 0.04 0.03 0.03 0.02 0.01 0.01 0.00 0.00 0.00 0.00 0.00 0.00 0.00 0.00 0.00 0.00 0.00
0.00 0.00 0.00 0.00 0.00 0.01 0.02 0.02 0.02 0.02 0.01 0.01 0.01 0.01 0.00 0.00 0.01 0.02 0.03 0.03 0.03 0.02 0.02 0.01 0.01 0.01 0.01 0.01 0.01 0.01 0.01 0.00 0.00 0.00 0.00 0.00 0.00 0.00
0.00 0.00 0.00 0.00 0.01 0.02 0.03 0.02 0.02 0.02 0.02 0.02 0.02 0.02 0.01 0.01 0.02 0.03 0.04 0.04 0.03 0.02 0.01 0.00 0.00 0.01 0.04 0.06 0.06 0.05 0.03 0.01 0.01 0.00 0.00 0.00 0.00 0.00
0.00 0.00 0.00 0.00 0.00 0.01 0.01 0.01 0.02 0.03 0.04 0.05 0.06 0.04 0.02 0.02 0.04 0.05 0.05 0.04 0.03 0.02 0.01 0.01 0.02 0.07 0.10 0.10 0.10 0.07 0.04 0.02 0.02 0.01 0.01 0.01 0.01 0.01
0.00 0.00 0.00 0.00 0.00 0.00 0.00 0.00 0.01 0.03 0.07 0.10 0.10 0.06 0.04 0.04 0.05 0.05 0.04 0.03 0.03 0.02 0.01 0.02 0.05 0.10 0.16 0.21 0.23 0.16 0.08 0.05 0.04 0.03 0.02 0.02 0.02 0.04
0.00 0.00 0.00 0.00 0.00 0.01 0.01 0.01 0.02 0.05 0.10 0.11 0.12 0.09 0.06 0.05 0.04 0.04 0.04 0.03 0.02 0.01 0.01 0.04 0.09 0.18 0.29 0.33 0.40 0.29 0.15 0.09 0.08 0.06 0.04 0.04 0.05 0.08
0.00 0.00 0.00 0.00 0.01 0.01 0.01 0.02 0.06 0.12 0.16 0.15 0.11 0.08 0.06 0.06 0.04 0.04 0.04 0.03 0.03 0.02 0.02 0.05 0.12 0.23 0.36 0.41 0.41 0.36 0.24 0.17 0.13 0.10 0.08 0.08 0.10 0.14
0.00 0.00 0.00 0.01 0.01 0.02 0.03 0.06 0.11 0.18 0.18 0.15 0.09 0.06 0.05 0.05 0.06 0.06 0.04 0.04 0.03 0.02 0.02 0.07 0.13 0.21 0.32 0.40 0.34 0.26 0.23 0.26 0.26 0.24 0.21 0.17 0.14 0.15
0.01 0.01 0.01 0.02 0.02 0.03 0.07 0.12 0.17 0.21 0.19 0.13 0.06 0.03 0.02 0.03 0.04 0.04 0.03 0.03 0.02 0.01 0.02 0.06 0.11 0.15 0.21 0.30 0.37 0.32 0.24 0.23 0.26 0.34 0.40 0.33 0.22 0.18
0.03 0.03 0.03 0.03 0.04 0.08 0.12 0.17 0.22 0.22 0.17 0.09 0.04 0.02 0.02 0.02 0.02 0.02 0.01 0.01 0.01 0.01 0.02 0.04 0.09 0.15 0.14 0.16 0.29 0.36 0.36 0.36 0.35 0.38 0.43 0.43 0.36 0.33
0.03 0.04 0.04 0.06 0.09 0.13 0.19 0.23 0.24 0.21 0.13 0.06 0.03 0.02 0.01 0.01 0.01 0.01 0.01 0.01 0.01 0.02 0.03 0.05 0.09 0.16 0.14 0.12 0.22 0.29 0.38 0.48 0.47 0.47 0.45 0.41 0.39 0.37
0.03 0.03 0.06 0.10 0.15 0.20 0.23 0.25 0.24 0.19 0.10 0.03 0.02 0.02 0.01 0.01 0.01 0.01 0.02 0.02 0.02 0.04 0.05 0.07 0.11 0.16 0.18 0.16 0.19 0.23 0.27 0.42 0.49 0.45 0.42 0.41 0.41 0.39
0.04 0.04 0.07 0.11 0.17 0.21 0.23 0.22 0.20 0.15 0.07 0.02 0.01 0.01 0.01 0.01 0.02 0.02 0.02 0.02 0.03 0.04 0.05 0.07 0.12 0.17 0.19 0.19 0.19 0.21 0.23 0.31 0.37 0.34 0.30 0.29 0.29 0.27
0.05 0.07 0.10 0.14 0.18 0.21 0.21 0.19 0.16 0.11 0.06 0.02 0.02 0.01 0.02 0.02 0.02 0.02 0.02 0.02 0.03 0.04 0.05 0.06 0.07 0.09 0.14 0.17 0.16 0.14 0.15 0.19 0.22 0.22 0.17 0.14 0.13 0.12
0.07 0.10 0.13 0.16 0.18 0.19 0.18 0.15 0.13 0.10 0.05 0.03 0.02 0.02 0.02 0.02 0.02 0.03 0.03 0.03 0.04 0.04 0.05 0.04 0.03 0.02 0.03 0.07 0.09 0.08 0.08 0.08 0.10 0.11 0.09 0.07 0.05 0.04
0.09 0.12 0.14 0.14 0.16 0.16 0.15 0.14 0.13 0.10 0.07 0.04 0.03 0.03 0.02 0.03 0.03 0.03 0.03 0.03 0.03 0.03 0.02 0.02 0.01 0.00 0.00 0.01 0.02 0.03 0.03 0.03 0.03 0.03 0.03 0.03 0.02 0.01
0.11 0.13 0.13 0.12 0.12 0.12 0.12 0.12 0.12 0.10 0.08 0.06 0.04 0.03 0.03 0.03 0.03 0.02 0.02 0.02 0.01 0.01 0.01 0.01 0.00 0.00 0.00 0.00 0.00 0.00 0.00 0.00 0.00 0.01 0.01 0.01 0.01 0.01
0.10 0.12 0.11 0.09 0.08 0.08 0.08 0.08 0.08 0.08 0.07 0.07 0.05 0.04 0.03 0.02 0.02 0.01 0.01 0.01 0.01 0.00 0.00 0.00 0.00 0.00 0.00 0.00 0.00 0.00 0.00 0.00 0.00 0.00 0.00 0.00 0.00 0.00
0.08 0.10 0.10 0.08 0.06 0.04 0.04 0.04 0.05 0.05 0.06 0.05 0.05 0.04 0.03 0.02 0.01 0.01 0.00 0.00 0.00 0.00 0.00 0.00 0.00 0.00 0.00 0.00 0.00 0.00 0.00 0.00 0.00 0.00 0.00 0.00 0.00 0.00

GEFSNE_prec_meanprec_030.txt.gz
QPF
0.00 0.00 0.00 0.00 0.00 0.00 0.00 0.00 0.01 0.01 0.00 0.00 0.00 0.00 0.00 0.00 0.01 0.01 0.02 0.01 0.01 0.00 0.00 0.00 0.00 0.01 0.01 0.01 0.01 0.02 0.03 0.04 0.07 0.11 0.18 0.22 0.24 0.21
0.00 0.00 0.00 0.00 0.00 0.00 0.00 0.00 0.01 0.01 0.01 0.01 0.00 0.00 0.01 0.01 0.01 0.02 0.02 0.01 0.00 0.00 0.00 0.00 0.01 0.01 0.01 0.01 0.01 0.01 0.02 0.02 0.02 0.04 0.08 0.12 0.17 0.18
0.01 0.00 0.01 0.00 0.00 0.00 0.00 0.00 0.01 0.02 0.02 0.02 0.01 0.01 0.02 0.02 0.02 0.02 0.02 0.02 0.01 0.01 0.00 0.00 0.01 0.01 0.01 0.02 0.02 0.01 0.01 0.01 0.01 0.01 0.03 0.05 0.08 0.11
0.01 0.01 0.00 0.00 0.00 0.00 0.00 0.00 0.01 0.02 0.03 0.03 0.02 0.02 0.02 0.02 0.02 0.02 0.01 0.01 0.02 0.01 0.01 0.01 0.02 0.02 0.02 0.02 0.01 0.01 0.01 0.00 0.00 0.01 0.01 0.02 0.03 0.05
0.01 0.01 0.00 0.00 0.00 0.00 0.01 0.01 0.01 0.02 0.04 0.05 0.04 0.03 0.02 0.01 0.02 0.02 0.02 0.03 0.03 0.02 0.01 0.02 0.02 0.02 0.02 0.01 0.01 0.01 0.00 0.00 0.00 0.00 0.00 0.01 0.01 0.02
0.00 0.00 0.00 0.00 0.00 0.01 0.01 0.01 0.02 0.04 0.05 0.05 0.04 0.02 0.02 0.01 0.03 0.03 0.03 0.04 0.04 0.02 0.03 0.03 0.03 0.02 0.01 0.01 0.01 0.00 0.00 0.00 0.00 0.00 0.00 0.00 0.00 0.01
0.00 0.00 0.00 0.00 0.01 0.01 0.02 0.03 0.05 0.06 0.05 0.05 0.04 0.03 0.02 0.02 0.04 0.05 0.06 0.05 0.04 0.03 0.03 0.02 0.02 0.01 0.01 0.01 0.01 0.01 0.00 0.00 0.00 0.00 0.00 0.00 0.00 0.00
0.00 0.00 0.00 0.00 0.00 0.01 0.01 0.03 0.04 0.05 0.06 0.06 0.05 0.04 0.03 0.03 0.05 0.08 0.08 0.07 0.05 0.02 0.02 0.02 0.01 0.01 0.01 0.01 0.01 0.01 0.01 0.01 0.00 0.00 0.00 0.00 0.00 0.00
0.01 0.01 0.00 0.00 0.01 0.01 0.02 0.01 0.02 0.03 0.06 0.09 0.09 0.07 0.06 0.07 0.10 0.09 0.07 0.06 0.05 0.04 0.03 0.02 0.01 0.01 0.01 0.03 0.04 0.04 0.02 0.01 0.01 0.00 0.00 0.00 0.00 0.00
0.01 0.01 0.01 0.01 0.01 0.02 0.02 0.01 0.01 0.03 0.07 0.09 0.11 0.12 0.11 0.10 0.09 0.07 0.06 0.06 0.04 0.03 0.02 0.01 0.01 0.02 0.03 0.06 0.08 0.08 0.05 0.03 0.02 0.01 0.01 0.00 0.00 0.00
0.01 0.01 0.01 0.01 0.01 0.02 0.02 0.03 0.03 0.05 0.11 0.15 0.15 0.14 0.11 0.08 0.05 0.04 0.04 0.05 0.04 0.03 0.01 0.01 0.02 0.03 0.06 0.11 0.14 0.14 0.11 0.07 0.05 0.03 0.02 0.01 0.01 0.00
0.00 0.00 0.01 0.01 0.02 0.03 0.04 0.05 0.06 0.07 0.11 0.14 0.14 0.12 0.07 0.04 0.04 0.05 0.05 0.04 0.04 0.03 0.01 0.02 0.03 0.06 0.12 0.16 0.16 0.15 0.13 0.11 0.09 0.06 0.04 0.03 0.02 0.01
0.01 0.01 0.02 0.03 0.04 0.05 0.07 0.07 0.07 0.09 0.11 0.11 0.09 0.06 0.03 0.02 0.02 0.02 0.02 0.02 0.02 0.02 0.03 0.04 0.06 0.10 0.16 0.19 0.21 0.21 0.15 0.13 0.11 0.10 0.09 0.06 0.03 0.02
0.02 0.03 0.04 0.06 0.07 0.08 0.08 0.08 0.10 0.11 0.10 0.08 0.05 0.03 0.03 0.02 0.02 0.02 0.02 0.02 0.02 0.03 0.04 0.05 0.07 0.11 0.13 0.16 0.21 0.21 0.19 0.18 0.16 0.14 0.12 0.09 0.05 0.04
0.03 0.06 0.09 0.10 0.12 0.12 0.12 0.11 0.11 0.09 0.07 0.04 0.02 0.03 0.03 0.03 0.03 0.03 0.03 0.03 0.02 0.03 0.05 0.06 0.07 0.09 0.09 0.11 0.15 0.15 0.19 0.25 0.20 0.16 0.12 0.09 0.06 0.04
0.03 0.08 0.13 0.15 0.15 0.13 0.11 0.09 0.08 0.06 0.04 0.03 0.03 0.03 0.03 0.03 0.04 0.04 0.04 0.03 0.03 0.05 0.06 0.06 0.07 0.07 0.07 0.09 0.10 0.11 0.15 0.24 0.23 0.15 0.11 0.11 0.09 0.08
0.05 0.07 0.10 0.12 0.12 0.09 0.07 0.06 0.05 0.04 0.03 0.02 0.03 0.03 0.03 0.04 0.04 0.04 0.04 0.03 0.03 0.05 0.07 0.08 0.08 0.06 0.06 0.06 0.08 0.10 0.13 0.19 0.19 0.14 0.10 0.14 0.19 0.20
0.06 0.08 0.10 0.11 0.10 0.08 0.06 0.05 0.04 0.03 0.03 0.03 0.03 0.03 0.04 0.04 0.04 0.04 0.04 0.03 0.04 0.05 0.06 0.08 0.07 0.04 0.03 0.07 0.10 0.10 0.12 0.16 0.17 0.13 0.09 0.13 0.23 0.28
0.05 0.08 0.10 0.10 0.09 0.07 0.05 0.04 0.04 0.04 0.03 0.03 0.03 0.03 0.04 0.04 0.04 0.04 0.04 0.04 0.04 0.04 0.04 0.05 0.05 0.03 0.02 0.09 0.18 0.14 0.11 0.12 0.14 0.14 0.13 0.12 0.18 0.24
0.05 0.08 0.09 0.09 0.07 0.06 0.05 0.05 0.04 0.03 0.03 0.03 0.03 0.04 0.04 0.04 0.04 0.04 0.04 0.04 0.03 0.02 0.02 0.02 0.03 0.02 0.01 0.04 0.11 0.15 0.12 0.11 0.11 0.13 0.14 0.13 0.13 0.15
0.06 0.06 0.07 0.07 0.06 0.06 0.05 0.05 0.04 0.04 0.04 0.04 0.04 0.05 0.05 0.04 0.04 0.04 0.03 0.02 0.01 0.01 0.01 0.02 0.02 0.01 0.01 0.01 0.03 0.07 0.10 0.10 0.09 0.09 0.09 0.09 0.09 0.09
0.05 0.05 0.05 0.05 0.05 0.05 0.05 0.04 0.04 0.04 0.04 0.04 0.04 0.05 0.05 0.04 0.04 0.03 0.02 0.01 0.01 0.00 0.00 0.01 0.01 0.01 0.00 0.00 0.01 0.02 0.03 0.04 0.04 0.04 0.04 0.04 0.04 0.05
0.05 0.04 0.04 0.04 0.04 0.04 0.04 0.04 0.04 0.04 0.04 0.04 0.04 0.04 0.04 0.04 0.03 0.02 0.02 0.01 0.00 0.00 0.00 0.00 0.00 0.00 0.00 0.00 0.00 0.00 0.01 0.01 0.01 0.01 0.01 0.01 0.01 0.01

GEFSNE_prec_meanprec_036.txt.gz
QPF
0.01 0.01 0.01 0.01 0.01 0.01 0.01 0.01 0.01 0.01 0.00 0.00 0.00 0.00 0.00 0.00 0.00 0.00 0.00 0.01 0.01 0.01 0.01 0.01 0.00 0.00 0.00 0.00 0.00 0.00 0.00 0.00 0.00 0.01 0.03 0.07 0.11 0.15
0.02 0.02 0.03 0.02 0.02 0.02 0.01 0.01 0.01 0.01 0.01 0.00 0.00 0.00 0.00 0.00 0.00 0.01 0.01 0.01 0.01 0.01 0.01 0.01 0.00 0.00 0.00 0.00 0.00 0.00 0.00 0.00 0.00 0.01 0.01 0.04 0.10 0.16
0.02 0.03 0.03 0.03 0.03 0.02 0.01 0.01 0.01 0.01 0.01 0.01 0.00 0.00 0.00 0.01 0.01 0.02 0.02 0.02 0.02 0.02 0.02 0.02 0.01 0.01 0.00 0.00 0.00 0.00 0.00 0.01 0.01 0.01 0.01 0.03 0.06 0.12
0.03 0.03 0.02 0.02 0.02 0.02 0.01 0.01 0.01 0.01 0.02 0.02 0.01 0.01 0.02 0.02 0.02 0.02 0.01 0.01 0.02 0.02 0.02 0.02 0.01 0.01 0.01 0.01 0.01 0.01 0.00 0.00 0.01 0.01 0.01 0.02 0.04 0.08
0.02 0.02 0.02 0.02 0.02 0.01 0.02 0.01 0.01 0.01 0.02 0.03 0.03 0.02 0.02 0.02 0.02 0.02 0.02 0.04 0.03 0.02 0.02 0.02 0.02 0.01 0.01 0.01 0.01 0.01 0.00 0.00 0.00 0.00 0.01 0.02 0.03 0.05
0.01 0.01 0.01 0.01 0.02 0.02 0.02 0.02 0.02 0.03 0.03 0.04 0.04 0.03 0.02 0.01 0.03 0.04 0.04 0.05 0.04 0.03 0.03 0.03 0.03 0.02 0.01 0.01 0.01 0.01 0.01 0.00 0.00 0.00 0.00 0.01 0.02 0.03
0.01 0.01 0.01 0.01 0.01 0.02 0.02 0.02 0.03 0.05 0.05 0.05 0.04 0.03 0.02 0.03 0.05 0.06 0.06 0.04 0.03 0.03 0.04 0.04 0.04 0.04 0.04 0.02 0.02 0.01 0.01 0.00 0.00 0.00 0.00 0.00 0.01 0.02
0.01 0.01 0.01 0.01 0.01 0.02 0.02 0.03 0.05 0.05 0.05 0.05 0.05 0.04 0.04 0.04 0.06 0.07 0.07 0.06 0.05 0.04 0.05 0.04 0.04 0.04 0.04 0.04 0.04 0.02 0.01 0.01 0.00 0.00 0.00 0.00 0.00 0.01
0.02 0.02 0.02 0.01 0.02 0.04 0.04 0.04 0.04 0.04 0.05 0.06 0.06 0.05 0.06 0.06 0.10 0.10 0.09 0.09 0.08 0.06 0.06 0.05 0.04 0.04 0.04 0.04 0.03 0.02 0.01 0.01 0.00 0.00 0.00 0.00 0.00 0.00
0.02 0.03 0.03 0.03 0.03 0.03 0.03 0.02 0.02 0.02 0.04 0.05 0.05 0.06 0.08 0.09 0.11 0.11 0.10 0.09 0.07 0.06 0.06 0.05 0.03 0.03 0.02 0.02 0.02 0.01 0.01 0.01 0.00 0.00 0.00 0.00 0.00 0.00
0.01 0.02 0.02 0.02 0.02 0.02 0.02 0.03 0.03 0.02 0.04 0.06 0.07 0.09 0.11 0.11 0.10 0.09 0.09 0.09 0.08 0.06 0.05 0.04 0.03 0.02 0.02 0.02 0.02 0.01 0.01 0.01 0.01 0.01 0.00 0.00 0.00 0.00
0.01 0.01 0.01 0.02 0.02 0.03 0.03 0.04 0.04 0.03 0.04 0.06 0.08 0.10 0.10 0.10 0.09 0.08 0.09 0.09 0.08 0.08 0.06 0.05 0.04 0.03 0.03 0.02 0.01 0.02 0.02 0.02 0.02 0.01 0.01 0.01 0.01 0.01
0.01 0.02 0.02 0.03 0.03 0.04 0.04 0.03 0.04 0.04 0.05 0.06 0.07 0.07 0.07 0.06 0.06 0.06 0.07 0.08 0.08 0.08 0.07 0.06 0.06 0.06 0.05 0.04 0.03 0.04 0.06 0.06 0.04 0.03 0.03 0.04 0.03 0.02
0.02 0.03 0.03 0.04 0.04 0.04 0.04 0.03 0.04 0.05 0.05 0.05 0.06 0.06 0.05 0.05 0.05 0.05 0.06 0.06 0.06 0.07 0.07 0.06 0.07 0.07 0.07 0.06 0.07 0.09 0.11 0.13 0.09 0.07 0.07 0.09 0.07 0.05
0.03 0.05 0.05 0.05 0.05 0.05 0.04 0.03 0.04 0.04 0.04 0.05 0.05 0.05 0.05 0.05 0.06 0.06 0.06 0.06 0.05 0.05 0.05 0.06 0.06 0.06 0.07 0.08 0.10 0.13 0.16 0.22 0.18 0.14 0.12 0.11 0.09 0.06
0.04 0.06 0.07 0.06 0.06 0.05 0.05 0.04 0.04 0.03 0.04 0.05 0.05 0.05 0.05 0.06 0.06 0.06 0.06 0.06 0.05 0.05 0.06 0.07 0.07 0.07 0.09 0.11 0.12 0.15 0.17 0.25 0.25 0.18 0.15 0.13 0.10 0.06
0.03 0.04 0.04 0.04 0.04 0.05 0.05 0.05 0.05 0.04 0.04 0.04 0.04 0.05 0.06 0.06 0.06 0.05 0.05 0.04 0.04 0.06 0.07 0.08 0.09 0.08 0.08 0.10 0.13 0.17 0.20 0.23 0.22 0.15 0.11 0.12 0.12 0.08
0.03 0.03 0.03 0.03 0.04 0.05 0.05 0.05 0.05 0.05 0.04 0.04 0.05 0.05 0.05 0.06 0.06 0.05 0.04 0.04 0.05 0.06 0.06 0.07 0.07 0.05 0.04 0.08 0.15 0.16 0.16 0.17 0.15 0.11 0.07 0.07 0.11 0.10
0.02 0.03 0.04 0.03 0.04 0.05 0.05 0.05 0.05 0.05 0.05 0.04 0.04 0.05 0.05 0.05 0.05 0.05 0.04 0.04 0.04 0.04 0.04 0.04 0.04 0.03 0.03 0.08 0.16 0.16 0.13 0.11 0.08 0.05 0.04 0.04 0.09 0.11
0.02 0.04 0.04 0.04 0.04 0.05 0.05 0.05 0.05 0.05 0.05 0.06 0.06 0.06 0.05 0.05 0.05 0.04 0.04 0.04 0.03 0.03 0.03 0.03 0.05 0.04 0.03 0.06 0.13 0.19 0.16 0.09 0.05 0.03 0.02 0.03 0.08 0.10
0.02 0.03 0.04 0.04 0.05 0.05 0.05 0.05 0.05 0.05 0.05 0.06 0.07 0.07 0.07 0.05 0.04 0.03 0.03 0.02 0.02 0.02 0.02 0.03 0.05 0.04 0.03 0.03 0.07 0.13 0.14 0.10 0.05 0.03 0.02 0.02 0.03 0.04
0.02 0.03 0.04 0.04 0.04 0.04 0.05 0.05 0.05 0.05 0.06 0.06 0.06 0.06 0.06 0.05 0.03 0.02 0.02 0.02 0.01 0.01 0.01 0.02 0.04 0.04 0.04 0.03 0.04 0.07 0.09 0.08 0.06 0.04 0.03 0.02 0.02 0.02
0.02 0.03 0.04 0.04 0.03 0.03 0.04 0.05 0.05 0.06 0.06 0.06 0.06 0.06 0.05 0.04 0.03 0.02 0.01 0.01 0.01 0.01 0.01 0.01 0.02 0.02 0.02 0.02 0.03 0.04 0.04 0.04 0.03 0.03 0.05 0.04 0.03 0.02